Wind_Speed
23 24 26 27 28 29 31 32 33 34 35 35 36 37 38 38 39 40 40 40 40 40 40 38 36 33 30 27 25 22 21 20 19 18 18 18 18 18 19 20 20 20 21 25 29 32 33 32 31 29 27 28 27 24 23 20 18 16 15 14 13 11 10 9 6 8 18 22 21 23 23 23 24 23 24 26 28 29 30 29 26 23 23 22 23
20 20 21 21 22 23 25 26 27 29 31 33 34 35 36 38 39 40 39 41 41 41 41 40 37 33 30 28 25 23 22 21 20 18 16 16 17 16 16 17 19 20 19 19 20 23 28 31 32 30 29 29 29 26 24 23 21 19 17 15 15 13 10 11 9 7 14 22 23 22 23 23 24 25 24 25 28 30 29 26 23 21 21 21 23
22 23 23 23 23 24 24 25 26 27 28 30 31 33 35 37 38 40 41 43 43 43 42 40 36 33 30 28 25 23 23 21 20 18 15 14 14 15 15 16 17 19 21 21 20 19 19 22 27 30 31 31 29 28 27 26 24 22 20 18 16 15 13 12 12 9 11 20 25 24 24 24 24 24 23 22 25 27 26 23 21 21 21 21 21
23 23 24 24 25 25 25 26 26 27 28 29 31 32 34 37 39 41 43 44 43 42 40 38 35 32 30 27 26 25 23 22 19 17 15 14 14 15 15 16 18 19 21 23 23 23 22 20 20 21 25 30 30 28 27 27 26 24 22 21 19 18 17 15 15 13 11 16 24 27 25 24 24 23 21 21 23 23 22 21 21 21 21 20 19
23 23 24 24 25 25 25 25 26 26 27 29 30 32 35 37 40 41 42 42 40 38 37 35 33 31 30 28 27 26 23 22 20 18 16 15 15 16 16 17 18 19 21 22 24 24 24 23 22 20 19 22 26 29 28 27 26 25 24 22 20 19 19 17 16 15 13 14 21 28 27 24 24 21 18 20 22 20 19 19 19 19 19 19 18
23 23 23 23 23 23 24 24 24 25 27 28 29 30 32 33 36 37 38 37 35 34 34 34 32 31 30 29 27 25 23 22 21 19 17 16 15 16 16 18 21 22 22 23 23 23 23 23 24 23 22 21 20 22 26 27 26 25 23 22 20 19 18 17 16 16 16 16 18 25 28 25 22 19 16 18 20 19 19 19 17 17 18 19 18
23 23 22 22 22 22 23 25 26 27 28 28 29 30 30 29 29 30 30 30 30 32 32 32 32 31 30 28 26 25 23 22 21 19 18 17 16 15 15 18 23 24 25 24 24 23 24 23 24 25 24 23 21 19 18 20 21 21 20 19 18 18 17 16 16 15 16 16 16 20 24 23 19 16 16 18 19 16 15 15 17 19 19 18 19
22 22 22 22 22 23 24 25 26 26 26 27 27 27 28 27 26 25 25 26 28 30 30 30 30 28 27 26 25 24 23 23 22 21 19 18 17 14 14 17 23 26 27 26 25 24 24 24 24 25 25 24 23 21 18 15 14 15 15 15 15 16 15 15 15 16 16 17 16 17 20 20 16 15 17 17 14 12 13 16 18 19 18 17 19
22 21 22 21 22 23 25 25 24 24 25 25 25 24 24 24 23 22 22 23 24 25 26 25 25 24 24 24 24 24 25 25 23 22 20 19 17 14 14 18 23 26 26 26 25 24 23 22 22 22 23 24 24 23 22 20 18 15 14 14 14 15 15 16 16 17 16 15 14 15 16 17 17 15 14 13 11 14 19 20 17 15 17 20 20
22 22 22 22 24 25 25 24 24 24 25 26 26 26 24 23 22 21 20 20 20 20 21 22 22 23 24 25 25 26 27 26 24 23 21 19 15 14 15 19 22 24 25 24 24 23 24 24 24 23 23 23 23 23 23 23 24 22 19 18 18 18 19 19 19 18 16 14 14 15 14 16 18 17 15 16 16 17 19 18 14 13 17 19 19
23 23 24 24 25 25 24 24 25 26 26 26 26 26 25 24 23 22 22 21 21 21 22 23 24 26 27 28 29 29 29 27 25 22 20 16 13 13 16 18 20 21 23 23 23 23 23 23 23 23 24 24 23 21 20 21 22 22 21 20 21 21 21 21 19 18 17 15 16 18 15 16 19 19 18 19 19 16 16 16 14 13 15 12 12
23 24 24 24 23 22 23 25 26 26 25 25 25 24 24 24 23 23 23 23 23 23 25 27 28 29 30 31 31 30 29 27 24 20 17 14 14 14 16 18 19 20 21 22 21 20 19 20 21 22 22 23 22 20 19 19 19 19 19 19 20 21 22 22 20 18 18 18 18 19 18 18 19 19 18 17 16 14 13 13 13 12 13 11 10
22 22 21 20 20 22 23 24 24 24 24 24 25 24 23 22 22 23 23 23 23 24 26 28 29 31 32 31 31 29 27 24 20 16 15 15 16 17 18 18 18 18 19 21 21 20 21 23 24 22 20 20 19 18 17 17 17 17 17 18 19 20 21 21 20 19 18 17 14 13 14 14 14 14 13 12 14 16 14 14 14 13 14 15 17
20 20 19 19 21 22 23 23 22 22 23 23 24 23 23 22 22 22 23 24 24 25 26 28 30 31 30 29 27 24 22 19 15 12 14 17 19 20 20 19 19 19 18 18 19 19 19 20 21 22 22 21 20 19 19 19 19 19 19 19 20 20 19 19 19 19 19 17 16 16 16 17 17 17 18 19 23 24 22 20 20 19 21 23 25
20 19 18 20 22 22 22 21 20 20 21 22 22 22 22 22 22 21 21 22 24 24 24 25 25 24 22 20 18 15 13 12 11 12 15 19 21 21 20 19 18 17 16 15 15 16 15 15 16 17 17 17 17 15 15 16 17 18 18 18 19 19 20 21 21 21 22 23 24 25 26 27 27 27 28 29 30 30 29 28 28 27 26 25 25
18 16 18 21 22 21 20 19 20 21 22 23 22 22 22 22 22 20 18 17 16 15 14 13 12 11 10 10 10 11 12 13 12 14 17 20 21 22 21 18 17 16 17 16 16 16 16 16 18 19 19 18 19 17 14 14 15 16 18 20 21 22 23 24 23 23 23 24 25 26 27 28 28 28 29 29 28 28 28 30 30 26 21 18 18
15 17 20 23 23 20 19 19 20 22 23 23 23 23 23 22 22 21 20 18 16 14 13 13 12 12 12 12 13 14 15 15 13 14 17 19 20 21 20 18 16 17 17 16 15 15 16 17 19 20 20 20 21 21 20 20 21 21 21 22 23 23 24 24 23 22 22 22 23 23 24 24 24 24 24 24 23 22 21 21 21 20 15 10 8
16 20 23 24 22 19 19 20 21 22 23 24 24 25 25 24 23 23 23 22 19 17 16 16 15 15 15 14 14 14 14 14 13 13 16 18 19 19 19 17 16 16 16 16 16 17 18 19 19 19 20 20 21 21 21 22 24 24 23 23 23 23 22 20 19 19 20 21 21 21 21 20 20 20 20 20 21 19 16 15 15 15 14 9 6
17 20 23 23 20 19 19 21 22 23 25 25 26 26 26 25 25 24 23 22 22 20 18 16 16 15 14 14 13 12 12 12 12 14 16 18 18 18 18 16 15 16 16 16 16 17 18 19 20 21 22 22 21 21 21 21 23 23 22 22 21 22 23 22 22 23 24 24 22 21 20 19 18 18 18 18 19 19 18 18 18 17 16 14 12
18 21 23 22 20 20 21 22 23 24 25 27 28 27 26 25 24 24 23 24 24 20 16 13 13 12 11 11 11 11 12 13 14 15 16 18 18 19 19 17 14 13 14 14 15 17 17 18 19 20 20 20 19 21 21 22 22 22 22 22 22 23 25 25 25 25 24 24 23 22 22 21 19 18 18 18 18 18 19 20 20 22 21 20 17
21 23 24 22 21 21 22 23 23 25 26 27 28 27 26 25 25 25 25 24 19 14 11 11 12 12 11 12 12 13 14 15 15 15 16 17 18 19 19 17 15 14 16 17 18 19 19 19 20 20 20 19 19 21 21 21 21 22 22 22 22 22 23 23 24 23 23 23 23 23 23 22 21 21 20 18 17 17 18 19 21 23 24 23 22
22 23 24 22 22 22 23 23 24 25 27 27 27 27 26 25 25 25 22 17 13 12 13 13 13 14 14 14 14 15 15 15 16 15 15 15 15 15 15 14 14 14 14 14 14 15 15 16 17 18 18 19 19 20 21 22 22 22 22 21 21 21 21 22 22 21 22 23 24 24 24 24 23 22 19 17 15 15 18 19 20 21 22 23 24
21 23 23 23 22 22 23 24 25 26 27 27 26 26 26 25 24 21 16 13 14 16 15 14 13 14 15 15 15 15 15 15 14 13 12 11 11 12 13 13 13 13 13 12 11 10 11 13 14 15 16 17 19 20 21 22 22 21 21 20 20 19 18 16 14 12 13 16 20 22 22 21 20 18 16 14 14 15 18 20 21 21 22 22 23
21 23 23 23 23 23 23 25 26 26 26 26 25 25 24 24 23 20 16 14 15 16 15 14 13 13 15 15 14 14 12 11 10 9 9 10 11 12 14 15 15 15 15 13 11 9 10 11 13 14 15 16 18 20 20 20 19 19 19 18 18 17 15 12 11 10 10 9 10 11 11 11 12 12 12 13 14 14 16 17 18 18 19 20 21
23 23 23 22 23 23 23 24 25 25 24 23 23 22 22 23 23 21 18 16 14 13 14 14 13 12 11 10 9 9 8 8 9 10 12 14 15 15 16 16 15 15 15 14 12 12 12 12 13 15 15 15 15 16 16 17 17 18 18 17 18 17 16 14 14 13 11 10 9 8 8 9 10 12 13 14 13 13 13 14 15 14 14 15 16
23 23 22 21 21 21 23 24 24 23 22 22 22 22 22 23 23 21 18 15 13 12 13 13 12 9 7 5 6 8 9 11 12 14 15 17 18 17 17 17 16 14 15 15 14 14 15 16 17 17 17 16 16 15 15 15 15 15 15 15 15 15 15 15 15 13 12 12 11 11 12 13 14 15 14 13 13 14 14 14 15 15 14 13 14
22 20 19 19 20 20 22 23 22 22 23 23 23 23 23 22 22 20 17 15 14 13 12 11 8 6 5 6 7 8 10 12 14 16 17 18 18 18 17 17 16 15 15 16 17 17 18 18 19 19 19 19 19 17 16 16 15 15 14 15 15 15 15 15 14 14 13 13 14 15 15 16 16 15 13 13 14 14 14 13 13 14 14 13 13
18 17 16 18 20 20 21 21 22 23 24 24 24 23 23 23 22 21 18 17 16 15 12 8 7 6 6 6 7 8 11 13 15 16 17 18 18 19 19 18 17 17 17 18 18 18 19 19 20 20 20 18 18 17 16 16 16 16 16 17 18 17 16 16 16 16 16 16 17 17 17 17 16 14 13 12 12 12 12 13 13 14 15 15 13
14 14 16 18 20 21 21 21 22 23 24 24 24 25 24 22 21 21 20 20 18 15 11 8 6 5 4 5 6 9 12 14 15 16 17 18 18 19 19 18 18 17 17 17 18 18 18 18 17 17 15 14 14 14 15 15 15 16 16 17 17 18 18 18 18 18 18 18 17 17 17 16 15 12 10 10 11 11 12 14 15 16 17 16 14
13 15 17 18 21 22 22 21 22 23 23 23 24 25 24 23 21 20 20 19 15 11 9 6 2 3 6 6 7 9 11 14 16 17 18 18 18 17 17 16 15 15 15 15 15 15 14 13 13 12 12 13 13 14 15 15 16 17 17 18 18 19 19 20 19 19 19 18 17 17 16 14 12 9 8 8 10 12 13 14 15 16 16 15 15
16 17 19 20 22 22 21 21 21 22 22 23 23 22 23 23 23 20 17 15 11 6 4 2 4 5 7 8 9 11 13 15 17 17 17 17 16 15 14 14 14 14 14 15 16 15 13 13 13 14 14 14 14 15 15 15 16 18 19 20 21 21 21 21 21 19 19 18 16 14 13 12 9 6 7 8 10 13 14 14 14 14 14 14 14
19 20 21 21 22 21 19 20 20 21 22 22 22 21 20 20 22 21 16 10 4 2 2 4 6 7 7 9 11 13 15 15 16 17 16 15 14 14 14 14 15 15 15 15 16 16 15 14 15 15 15 15 15 16 16 16 17 19 19 21 22 22 21 21 20 19 20 18 16 14 12 8 5 5 6 8 9 12 13 14 14 13 14 14 14
21 21 21 21 20 19 18 19 20 20 19 20 19 18 17 15 16 16 13 7 3 4 7 8 9 8 8 9 11 13 15 16 16 15 14 13 13 13 14 14 15 15 15 15 16 16 15 14 15 15 15 15 16 17 17 18 19 18 18 20 21 21 21 21 20 20 19 16 15 13 9 5 4 5 6 7 9 11 13 15 15 15 14 14 15
19 19 18 18 18 19 19 20 20 18 17 18 18 16 15 14 12 12 11 10 10 11 13 12 10 9 10 11 12 13 14 15 14 12 11 11 12 13 15 15 14 12 12 12 14 15 15 15 15 15 15 16 17 18 19 19 18 17 17 17 18 20 22 20 19 18 15 15 15 10 6 3 3 5 7 8 10 12 14 16 16 15 14 14 15
18 18 17 17 18 20 20 20 20 19 18 19 19 16 15 15 14 12 11 11 11 12 13 12 10 10 11 12 13 13 13 12 10 9 10 11 13 14 15 14 13 12 11 11 12 12 13 15 16 16 16 16 16 16 16 16 15 14 14 15 17 21 21 17 15 14 14 15 12 6 4 3 3 5 7 9 11 12 14 16 15 15 15 15 15
19 19 19 19 19 20 20 20 20 20 19 18 18 17 17 16 15 14 13 12 10 9 8 9 10 11 11 11 12 12 11 9 9 9 10 11 12 13 13 12 12 12 13 13 13 11 10 10 11 11 11 11 10 9 9 9 10 10 11 12 15 19 17 11 13 15 14 12 7 4 4 3 4 6 7 10 11 12 14 16 15 15 16 15 15
19 19 20 20 20 20 20 20 19 19 18 17 18 19 19 18 16 14 13 11 9 6 6 8 10 12 12 12 12 10 9 8 9 10 10 10 11 11 10 10 11 12 13 13 12 12 11 10 9 8 8 8 8 7 7 8 9 10 11 11 13 15 13 5 10 13 10 7 4 3 3 4 5 6 8 10 11 13 14 15 15 15 16 15 15
19 20 20 19 19 19 19 19 19 18 17 17 18 18 18 17 15 14 11 9 7 6 7 8 9 11 12 13 11 9 9 10 10 9 9 9 10 9 9 10 11 11 11 12 11 11 11 11 10 10 9 9 9 9 9 9 10 10 11 11 11 12 10 3 5 7 5 4 4 4 4 5 6 7 8 10 11 14 15 15 14 15 15 14 14
22 23 21 19 18 17 17 17 17 16 16 17 18 18 17 16 15 13 11 8 6 5 6 7 8 10 11 11 9 9 10 9 8 7 8 10 10 9 10 11 12 11 11 12 12 12 12 12 11 11 10 10 10 10 10 10 10 10 11 12 11 10 8 5 4 5 4 4 4 4 5 6 6 7 9 10 12 14 14 15 15 14 14 15 15
23 23 21 19 17 16 16 16 15 15 16 17 17 17 17 15 13 11 8 6 5 6 7 7 9 9 9 8 9 10 10 7 6 7 9 10 10 10 10 11 12 12 12 12 12 13 13 13 12 12 11 11 11 11 10 10 10 11 11 11 10 9 7 5 5 5 5 5 5 5 5 6 7 8 9 11 12 13 13 14 13 13 13 13 13
23 22 20 19 16 16 16 15 14 15 16 16 16 16 16 15 13 11 8 7 7 7 7 8 9 8 7 7 8 9 9 7 7 9 10 9 10 10 11 11 11 12 12 12 12 13 14 15 14 13 12 12 12 12 11 11 11 11 11 11 10 9 7 5 4 4 5 5 5 5 6 7 8 9 10 11 12 12 12 12 11 11 11 11 10
22 20 20 18 16 15 14 14 14 16 16 15 15 15 15 15 14 12 9 8 7 7 8 8 8 7 6 6 7 8 8 8 9 9 9 9 10 11 11 11 11 11 11 11 12 13 15 15 14 12 12 12 12 12 12 11 11 11 11 11 10 9 7 5 4 4 4 5 5 7 8 8 9 9 10 11 11 12 11 10 9 9 9 9 8
20 19 19 17 15 14 14 14 15 16 15 15 15 14 14 14 13 12 10 9 8 8 7 7 7 6 6 6 7 8 8 8 8 8 9 10 11 11 11 11 11 10 10 11 12 14 15 14 12 11 11 10 10 11 11 12 12 12 12 11 10 10 9 7 6 5 6 6 7 8 9 9 9 9 10 10 11 10 10 9 8 8 8 8 8
20 19 18 15 14 14 14 15 15 15 14 14 14 14 13 13 12 11 10 9 7 7 7 7 7 7 7 7 8 8 8 7 7 8 9 10 11 11 11 10 10 11 11 12 14 14 13 11 10 10 10 10 10 10 11 11 10 10 10 10 10 10 9 8 7 7 7 8 8 9 9 9 9 9 9 9 9 9 9 8 8 8 8 8 8
19 17 16 14 14 14 14 14 15 14 14 14 14 14 13 13 12 12 11 9 8 8 8 8 8 8 8 8 8 7 7 8 7 8 9 11 11 11 11 10 11 12 13 15 15 14 11 10 10 11 11 11 11 10 10 9 8 8 8 9 10 9 8 8 8 8 8 9 9 9 9 9 8 8 8 9 9 8 8 8 8 8 8 8 7
17 14 14 14 14 14 14 14 14 13 13 13 13 13 13 13 12 12 11 10 10 9 9 8 8 8 8 7 6 6 7 7 7 8 10 11 11 11 11 11 12 13 14 15 14 12 10 8 9 10 11 12 11 10 8 7 7 7 8 8 8 8 8 8 8 9 10 10 11 10 10 9 8 7 8 9 9 8 8 8 8 8 8 8 6
14 12 13 14 14 13 14 14 13 13 13 12 12 12 12 12 12 11 11 11 10 10 9 9 8 7 6 5 5 6 7 7 8 9 10 11 11 11 11 12 14 15 15 15 13 11 9 8 9 10 11 11 11 9 8 7 7 7 7 7 8 8 8 8 9 10 10 11 11 11 10 8 7 7 8 9 9 9 8 8 8 8 7 6 5
12 12 13 14 13 14 14 14 13 13 13 13 13 13 12 12 12 12 11 11 10 9 9 9 8 7 6 6 5 6 6 7 8 9 10 10 11 11 12 14 15 16 15 14 13 10 8 8 9 9 10 10 10 9 8 8 8 8 8 8 8 8 8 9 9 10 10 10 10 9 8 7 6 7 8 9 9 9 8 8 8 8 6 5 3
12 13 13 14 14 14 13 13 13 13 13 13 13 13 12 12 12 13 12 10 10 9 9 9 9 8 7 6 6 6 6 7 8 9 9 10 11 12 14 15 16 15 14 13 12 10 8 8 8 9 9 10 9 9 8 8 8 8 8 8 8 8 8 9 9 9 9 8 7 7 6 6 6 7 8 8 8 8 8 8 7 6 5 4 3
13 13 13 14 14 13 12 13 13 12 12 12 13 13 12 12 13 13 12 10 10 9 9 9 9 9 8 7 7 6 6 7 8 8 9 10 12 13 14 15 15 13 12 13 12 9 8 8 9 9 9 9 9 8 8 8 8 7 7 7 7 7 8 7 7 6 5 5 5 5 5 5 6 7 8 8 8 7 7 7 6 5 4 4 4
14 13 13 13 13 13 13 13 13 13 13 12 12 12 13 12 12 12 11 10 10 10 9 9 9 8 8 7 6 6 6 6 7 8 10 11 12 13 15 15 14 12 12 12 11 9 8 8 9 9 9 9 9 8 8 7 6 5 5 5 5 4 4 3 3 2 3 3 3 4 4 4 5 6 7 7 7 6 6 6 6 5 4 4 5
Wind_Direction
296 292 289 286 282 280 277 276 274 273 272 270 267 265 264 262 261 261 260 258 257 254 250 244 240 237 235 236 239 244 248 250 253 260 268 275 284 292 297 299 299 298 293 281 268 258 252 250 250 248 243 241 242 245 245 247 249 252 255 259 263 264 268 273 270 285 299 304 307 310 315 318 316 316 317 315 313 314 316 317 320 321 321 319 317
345 338 331 324 316 311 304 300 297 293 288 283 279 275 272 270 269 266 263 261 258 254 248 241 236 233 232 234 237 240 241 242 245 252 259 266 275 284 290 292 293 298 303 301 290 275 261 253 251 249 244 240 239 240 243 245 246 249 254 256 258 257 256 267 272 278 296 303 307 310 313 315 312 312 312 310 310 312 315 317 321 322 319 314 312
357 351 346 341 335 331 324 320 315 309 302 295 289 285 281 279 275 271 267 264 259 252 244 237 233 231 231 233 235 235 234 236 240 246 251 258 266 273 278 284 290 296 300 305 308 306 294 274 260 251 243 239 238 239 240 242 242 245 250 252 255 259 261 270 278 278 288 300 305 309 313 314 312 311 310 307 309 312 315 319 321 320 317 314 314
352 347 343 337 333 330 325 322 319 313 308 302 296 292 289 285 280 275 270 265 258 249 241 234 231 229 228 230 231 229 230 232 235 239 242 249 257 264 272 281 288 294 296 299 301 305 310 307 293 273 254 243 238 238 238 238 238 240 243 246 250 258 266 271 276 278 281 294 300 304 308 311 310 310 309 307 310 313 315 318 319 319 319 318 317
348 344 339 334 331 328 325 322 319 315 310 306 302 298 293 288 283 277 271 264 255 245 236 231 228 227 228 229 227 225 227 229 230 233 239 247 255 262 271 282 289 292 292 294 296 298 300 304 306 306 293 269 250 241 237 235 236 237 238 241 245 251 258 263 268 274 279 285 295 301 304 307 308 306 307 308 310 313 315 316 318 321 322 321 321
346 343 339 336 333 331 330 329 326 323 320 317 314 310 305 298 290 282 272 262 252 241 234 230 228 228 229 227 225 225 226 227 230 233 239 247 254 260 271 284 290 292 291 290 291 292 293 295 296 300 305 302 282 258 244 237 235 236 237 239 242 243 247 252 258 268 278 283 292 298 301 305 304 302 306 309 308 309 312 317 324 327 329 330 328
345 342 338 336 335 332 331 329 326 324 321 320 318 315 313 308 300 288 274 260 248 239 234 231 229 229 228 225 225 227 226 228 231 234 240 248 252 257 270 284 287 289 290 289 287 286 286 288 290 290 291 296 297 289 269 250 239 238 240 241 240 239 241 248 256 266 277 285 290 293 295 297 295 296 307 310 308 311 321 331 333 330 332 334 329
341 338 336 333 331 329 327 325 323 322 321 321 320 317 315 310 303 292 278 264 252 244 239 234 230 227 226 226 228 228 228 230 232 234 240 246 249 256 270 281 285 286 287 287 286 285 284 284 284 284 282 281 284 286 283 272 256 244 242 244 243 244 247 252 260 267 273 280 285 286 287 288 288 298 307 310 315 324 330 333 328 325 329 330 326
337 335 332 330 329 327 326 325 324 326 328 329 328 326 323 317 308 297 284 270 258 249 243 237 232 229 230 232 233 232 232 233 233 236 241 244 248 260 275 280 281 282 283 283 282 283 285 285 283 282 280 278 276 274 272 271 267 258 249 248 251 253 257 259 262 266 268 272 276 277 279 279 283 293 298 299 308 316 319 321 317 316 327 329 324
334 332 330 329 328 327 326 327 329 333 334 334 332 330 328 326 318 307 295 282 270 260 252 246 242 240 240 239 238 235 234 235 237 240 241 244 253 268 276 277 276 276 277 278 278 280 282 282 282 282 280 277 275 272 266 263 263 263 259 258 259 260 261 260 258 258 257 256 258 260 261 266 273 279 283 286 292 299 307 312 310 319 333 334 323
333 332 329 327 327 328 329 331 332 332 331 330 329 326 324 321 317 309 301 291 282 275 266 259 254 251 249 245 241 237 236 238 240 238 235 240 255 268 271 272 273 273 273 273 273 275 277 278 281 283 281 278 276 273 265 256 257 259 258 256 258 258 256 252 249 246 243 244 248 247 246 256 265 271 278 284 286 285 288 290 294 313 327 327 317
332 329 328 328 330 333 334 333 331 329 329 328 325 323 320 316 311 305 298 291 286 280 272 265 261 257 252 246 242 239 239 240 238 233 233 243 258 267 271 277 278 274 272 271 270 271 275 280 284 285 284 279 272 266 262 258 259 260 258 256 254 253 251 249 246 241 235 238 244 243 242 248 257 265 274 280 284 290 293 289 291 304 310 309 304
333 331 333 336 338 338 335 333 331 329 328 327 324 321 318 314 312 307 301 296 291 283 276 270 264 258 251 245 242 240 239 237 233 233 243 256 266 273 279 286 287 280 273 269 267 269 275 279 279 278 282 280 271 263 262 265 269 270 267 264 261 256 252 251 250 248 245 247 253 252 248 252 260 268 274 282 296 307 310 304 303 303 297 294 292
338 336 338 339 339 338 336 333 331 330 330 331 329 326 321 317 313 310 305 299 292 286 281 274 266 258 251 244 241 239 236 235 237 245 259 268 275 281 289 295 294 287 277 269 267 272 276 278 275 272 274 276 275 273 273 273 275 276 273 268 264 259 255 253 255 258 261 267 274 274 272 275 281 282 281 285 293 296 294 291 289 286 281 282 285
333 333 338 341 340 339 336 334 333 334 336 336 336 336 334 330 324 317 307 299 290 284 278 270 261 253 247 242 239 239 243 251 258 267 275 279 284 291 298 299 294 285 277 270 272 277 278 278 279 279 278 276 275 277 277 274 271 271 271 270 269 267 264 264 265 267 271 272 273 274 274 276 280 281 280 281 284 285 286 285 282 279 280 282 284
330 338 345 343 338 335 333 333 333 334 334 335 335 335 336 336 334 328 320 311 303 298 292 283 272 264 259 257 258 264 272 275 273 275 281 286 291 296 300 297 289 283 280 278 278 279 279 280 283 286 285 284 283 281 278 277 275 273 274 276 276 274 271 271 272 272 272 270 269 269 269 270 272 272 271 270 271 274 276 276 278 279 278 279 281
335 342 343 336 329 326 326 328 329 330 330 330 329 327 327 326 325 324 322 319 316 315 314 311 305 297 290 284 280 279 278 275 272 276 283 288 292 296 297 295 289 282 278 277 276 277 281 283 283 284 284 284 286 283 278 276 275 273 272 272 272 271 271 272 271 267 264 264 266 268 267 267 266 265 265 264 266 271 272 270 276 280 273 267 269
330 333 334 331 325 320 323 328 329 329 328 325 322 320 318 315 312 311 310 306 303 303 303 301 298 294 288 282 278 275 274 275 277 280 284 288 292 295 295 293 287 282 278 277 277 280 284 284 280 278 278 280 281 280 276 272 270 267 265 265 265 264 265 268 268 264 263 264 266 267 267 268 267 267 269 270 271 277 279 276 279 278 268 261 268
326 328 330 327 320 317 325 330 329 327 325 322 319 316 312 310 307 304 301 298 295 295 294 293 292 289 283 277 273 272 277 282 284 284 288 292 295 296 296 294 287 281 279 280 282 285 286 285 280 275 273 273 274 273 270 267 265 263 261 259 257 258 260 262 262 262 264 265 267 268 269 270 270 268 267 267 266 268 269 273 276 273 267 266 270
327 328 327 321 313 314 323 326 326 327 325 321 318 314 311 308 305 303 301 296 291 286 284 285 288 287 283 279 280 283 287 289 290 292 296 297 296 295 296 297 295 290 287 288 288 286 284 284 282 278 272 270 270 271 269 266 264 261 258 254 250 253 258 259 258 259 260 263 266 269 272 274 274 272 269 268 265 261 259 260 265 266 266 265 262
330 329 326 319 310 311 319 323 325 325 324 320 316 313 311 309 307 305 301 295 290 288 294 299 297 294 294 294 294 295 295 296 299 304 304 300 296 294 294 296 296 294 290 287 284 282 281 280 279 277 273 269 269 271 270 268 266 265 265 260 257 259 259 256 256 256 254 256 261 264 267 270 271 271 273 272 267 260 258 258 259 262 263 262 259
330 330 327 319 311 311 318 324 326 325 323 320 317 314 314 314 311 306 301 299 307 314 312 308 303 300 301 302 300 301 302 306 310 312 311 306 299 296 295 295 294 294 296 296 294 293 293 290 287 284 277 271 269 269 268 268 269 270 271 269 266 266 264 260 257 253 249 248 250 254 259 262 264 268 271 269 263 264 270 274 274 272 268 264 261
329 329 326 319 312 313 320 325 326 325 323 321 319 316 316 316 313 308 305 312 320 315 307 303 302 303 306 307 306 308 312 315 318 321 323 320 311 305 304 304 305 313 322 324 321 317 313 307 303 297 285 275 271 269 267 267 268 267 267 266 266 269 271 270 266 264 261 252 243 242 247 250 253 259 262 262 267 277 284 288 291 287 280 275 273
328 326 323 318 313 314 321 325 325 324 323 323 321 320 319 317 313 308 308 316 318 311 304 302 301 303 307 307 310 314 317 319 324 329 335 334 326 320 320 320 319 322 322 320 321 324 321 314 307 301 293 284 278 274 271 270 272 274 275 277 282 288 294 296 296 298 298 279 248 236 238 241 244 251 260 270 279 286 290 294 297 295 288 284 284
327 323 320 316 312 314 320 324 324 324 325 324 322 321 323 322 317 310 306 307 309 306 302 299 298 299 302 306 313 318 321 325 327 329 332 331 326 321 319 317 314 312 310 311 316 318 316 312 309 306 305 303 298 294 293 291 291 292 294 296 298 299 298 298 298 292 280 268 256 254 262 267 268 272 279 281 277 275 281 290 296 298 293 287 288
324 321 319 316 315 319 323 324 324 323 323 323 321 320 322 323 320 314 307 303 301 301 301 298 295 292 293 302 314 320 325 329 330 331 333 331 327 323 319 313 305 299 298 301 307 309 308 308 308 306 306 306 307 307 308 308 305 303 304 304 305 305 300 295 289 277 261 252 253 261 270 277 281 284 282 273 265 269 279 288 292 293 292 292 291
322 321 322 322 324 326 325 323 322 322 322 322 321 320 322 324 320 314 309 307 304 299 295 289 283 282 294 307 318 329 335 337 338 338 338 335 331 328 324 318 312 303 298 299 304 308 309 309 307 305 303 301 299 298 298 300 302 302 300 299 301 304 302 295 283 270 262 260 263 267 272 277 282 281 273 264 265 274 282 290 294 293 295 300 300
322 322 326 328 329 329 326 323 321 320 320 320 319 318 319 321 317 311 306 303 297 291 286 279 273 282 300 315 330 342 345 346 346 342 336 330 326 321 317 314 311 308 305 304 305 305 304 302 302 301 301 300 299 297 295 296 299 301 299 299 298 297 295 292 286 277 273 272 271 269 269 272 273 270 262 260 267 273 279 288 295 295 298 304 306
324 327 329 330 330 328 325 322 321 319 317 316 315 314 314 315 312 308 306 303 296 284 273 266 270 295 332 2 8 1 351 344 339 331 323 318 315 311 309 306 303 302 301 299 298 298 297 296 298 299 301 304 306 305 303 304 304 303 302 302 301 298 294 291 288 284 281 277 270 262 260 261 259 251 249 258 269 276 281 287 292 295 298 301 300
330 331 331 330 328 326 321 317 319 318 315 313 311 311 314 315 312 307 304 302 296 276 261 263 304 20 26 27 18 1 348 337 330 324 318 312 307 305 307 308 307 306 303 299 298 300 302 303 304 304 307 310 310 308 309 310 309 306 304 303 300 297 294 291 289 288 285 279 269 259 252 245 236 234 251 273 284 288 290 292 293 294 296 295 293
336 333 332 329 327 322 316 314 317 317 316 314 309 308 312 316 318 316 308 299 291 271 256 308 7 13 10 9 1 349 341 334 329 323 315 311 311 314 318 318 313 308 305 303 302 303 306 308 306 304 304 304 304 305 305 304 304 303 301 300 297 292 287 284 283 284 284 277 264 247 231 222 222 245 278 294 298 296 295 296 295 292 291 290 287
336 333 331 327 325 321 316 315 318 317 317 317 312 307 308 309 311 315 312 298 293 1 8 355 355 355 359 2 353 343 338 333 325 318 312 311 316 322 323 318 312 305 302 300 298 298 299 299 297 298 300 299 299 301 301 299 298 296 295 294 291 287 284 280 277 281 283 272 246 218 206 209 233 277 292 297 301 299 297 298 296 293 291 289 284
336 333 330 327 326 325 322 322 321 319 320 323 320 318 320 318 314 317 318 308 310 346 348 351 356 355 354 354 348 340 334 327 319 314 314 314 317 324 326 322 317 311 304 297 292 292 294 294 292 292 294 294 297 299 297 293 291 290 290 289 286 287 289 284 278 282 281 255 216 196 194 213 249 276 288 294 297 297 295 295 294 293 289 285 281
337 335 333 330 328 328 328 325 322 320 323 326 325 328 337 342 342 343 341 333 324 324 331 340 347 347 344 344 342 336 329 321 314 312 314 315 322 330 330 322 317 314 310 303 295 290 287 287 287 289 290 292 293 293 291 289 286 283 284 287 290 297 297 287 278 278 260 217 194 191 201 216 249 273 286 293 292 291 289 288 288 288 285 281 279
339 338 337 334 331 329 327 324 320 318 320 321 320 322 329 333 334 335 334 330 321 316 320 327 335 342 343 339 336 334 329 321 314 313 314 319 329 334 330 325 324 326 329 332 324 307 292 285 284 286 286 287 288 289 291 294 292 289 289 293 301 308 305 285 267 256 227 200 191 195 198 213 263 274 282 289 288 286 286 286 287 286 282 279 277
343 342 340 338 333 328 325 322 319 317 316 316 316 319 322 322 321 318 317 314 308 305 311 322 329 334 335 335 335 335 330 322 319 319 319 324 333 336 334 334 335 332 332 337 340 336 324 311 302 298 295 294 297 301 306 313 316 315 314 311 312 320 317 282 241 224 206 195 194 198 198 235 269 269 278 286 286 285 286 286 287 286 282 279 277
346 344 340 336 331 325 322 321 320 318 316 316 318 320 320 318 316 313 311 309 305 305 316 325 327 328 331 336 339 334 326 322 322 321 321 328 335 339 341 343 339 332 330 336 342 344 346 346 346 345 341 337 339 342 342 342 340 339 337 330 323 330 334 291 211 198 191 192 203 215 229 251 260 267 282 289 288 290 290 287 286 284 281 279 277
346 343 338 332 328 325 322 321 322 323 324 327 330 331 328 324 321 317 310 302 298 307 319 327 332 332 332 335 337 332 329 330 328 325 329 337 341 343 348 351 348 340 337 341 346 346 346 347 350 352 352 349 349 350 349 347 344 342 343 341 335 335 340 323 201 192 199 217 225 233 246 250 257 276 289 293 293 293 292 289 286 282 280 279 275
344 341 338 334 330 327 324 323 325 329 334 339 343 342 337 330 322 313 303 295 299 318 330 333 333 332 330 331 334 333 331 333 336 339 344 347 347 345 345 347 350 349 346 346 348 347 344 341 340 341 342 343 343 343 341 339 337 335 336 339 340 339 339 319 267 246 247 248 243 242 246 253 270 286 292 294 295 295 293 290 286 281 279 278 275
343 341 339 337 333 330 330 329 330 336 342 343 344 345 345 341 334 323 315 315 325 332 334 332 329 330 330 328 330 331 331 336 346 347 345 345 344 342 340 340 343 345 344 344 344 342 338 335 332 330 331 332 333 332 330 329 329 327 326 328 332 337 340 329 295 269 256 249 244 244 251 268 281 288 292 296 297 295 293 291 288 283 279 277 275
342 340 338 338 336 334 335 334 333 338 342 341 341 343 343 341 337 333 328 328 329 328 329 328 328 327 325 323 325 327 330 339 344 340 338 339 338 336 335 334 335 338 339 340 340 337 333 329 326 322 322 322 323 323 320 316 315 316 316 316 318 321 327 334 320 286 261 247 247 255 268 279 284 287 293 297 297 295 293 292 290 286 280 275 273
341 338 337 338 339 336 334 332 334 338 339 339 339 339 337 336 334 329 323 325 327 326 327 328 327 323 320 323 328 328 326 330 333 332 332 335 334 334 333 331 330 333 335 336 335 332 328 324 320 318 317 318 319 318 315 310 307 306 307 307 306 305 307 315 319 303 281 272 273 277 280 283 286 289 293 295 295 295 293 290 288 283 276 272 271
338 336 335 335 336 334 331 331 335 337 337 335 336 337 339 340 338 331 325 325 326 327 332 335 335 330 325 326 328 328 326 328 331 332 332 334 334 333 332 330 330 332 331 329 328 327 325 321 317 315 316 317 317 315 311 306 303 301 300 300 297 292 289 291 297 295 287 284 285 286 286 285 284 286 290 294 294 293 290 285 280 274 270 270 271
336 334 334 334 334 332 330 332 336 337 336 336 339 342 345 346 345 342 337 333 331 338 347 348 343 335 328 326 329 331 334 337 337 334 334 335 334 334 333 334 334 333 328 325 326 326 323 320 318 317 316 315 314 311 307 303 301 297 294 294 293 288 281 278 280 283 283 285 288 290 287 285 282 283 288 293 293 289 286 280 272 266 264 267 269
336 335 336 335 333 330 329 333 337 338 339 341 344 347 350 351 353 354 353 349 348 352 352 351 347 338 328 326 332 337 339 340 338 334 335 336 335 335 335 336 335 332 327 326 327 327 325 325 326 325 321 318 317 314 308 302 296 289 286 289 292 291 285 278 275 276 278 282 286 288 286 283 279 279 286 291 291 288 282 275 267 262 261 261 263
338 340 341 337 333 330 331 335 337 338 342 345 346 346 349 349 350 352 353 353 354 354 351 349 347 339 331 329 333 336 337 337 334 334 336 337 336 334 333 333 332 328 326 327 328 327 327 329 332 331 326 322 320 320 316 308 299 293 291 292 294 295 292 285 279 276 275 274 276 279 280 277 272 275 284 289 289 285 279 271 265 263 258 255 259
343 347 344 339 335 333 334 337 339 339 341 345 346 344 344 345 348 351 352 351 353 354 354 354 351 347 343 341 338 337 337 334 332 335 336 336 337 335 332 331 331 328 326 328 329 328 327 330 332 332 328 324 322 322 319 313 306 302 299 297 296 294 291 286 281 276 272 270 271 272 270 265 263 272 281 285 285 283 276 268 264 260 254 251 257
347 348 344 339 337 336 337 340 341 340 341 344 345 343 344 347 350 353 354 355 357 358 357 359 2 4 4 358 348 342 339 333 331 334 334 334 335 334 330 329 329 328 328 330 332 329 329 331 333 335 333 329 325 324 320 314 308 304 300 298 296 293 287 282 278 274 272 271 268 262 255 253 260 272 277 279 281 279 272 266 263 256 245 241 247
348 347 342 337 337 338 341 342 342 342 343 344 344 345 348 349 349 350 352 356 360 1 0 359 359 358 359 359 353 347 339 333 331 332 332 332 333 331 329 329 330 329 330 334 336 335 336 340 342 344 342 336 332 329 324 317 311 307 302 298 293 288 282 277 275 274 271 264 254 243 242 251 264 273 276 276 275 270 263 259 256 247 235 228 226
348 346 341 337 338 340 342 344 344 345 346 347 347 348 347 344 346 350 353 354 356 359 359 356 353 349 346 345 342 338 336 333 330 330 331 332 332 332 332 332 332 332 335 338 340 340 342 346 351 354 351 344 341 339 332 325 319 313 306 298 290 284 280 277 274 267 254 238 230 231 242 258 270 274 275 271 265 259 254 247 236 224 216 214 211
349 347 342 340 341 342 343 344 344 345 346 347 346 346 344 343 347 353 355 355 355 356 356 355 356 352 347 342 339 338 336 332 329 330 333 333 333 334 335 335 335 337 339 342 344 347 349 353 359 359 354 349 349 347 341 335 330 321 310 302 295 292 289 277 259 237 220 220 232 244 256 269 275 273 270 263 253 244 237 224 211 200 197 201 201
Height
778 777 777 776 775 775 774 773 773 772 771 770 769 768 767 767 766 765 765 764 763 763 762 762 761 762 763 764 765 766 768 769 769 769 770 771 771 772 773 774 774 773 771 770 769 768 766 765 764 764 764 764 765 766 766 767 767 767 768 768 768 768 768 767 766 762 759 759 758 755 755 753 751 749 748 746 744 743 742 741 739 737 736 736 735
777 777 776 776 775 775 774 773 773 772 771 769 768 767 766 765 764 763 762 760 760 758 757 756 756 757 758 759 761 762 763 764 765 765 765 766 767 768 770 771 770 770 769 768 767 766 764 762 761 761 761 761 761 762 762 763 764 764 764 765 765 765 766 765 764 762 758 756 756 754 753 753 750 748 748 746 743 742 740 739 738 736 735 735 734
776 775 775 775 774 774 773 772 771 769 768 767 765 764 763 762 761 759 757 756 755 753 752 752 752 753 754 755 756 758 759 760 761 761 761 762 763 764 766 767 767 767 767 766 765 764 763 761 759 759 758 757 757 758 759 759 760 760 760 761 762 762 763 762 761 761 758 755 754 753 752 751 749 748 747 746 743 741 739 737 736 735 734 734 732
776 775 775 774 773 773 771 770 769 767 766 765 763 762 760 758 757 754 752 750 749 748 747 748 748 749 750 751 752 754 755 756 757 758 758 758 759 760 761 763 764 764 764 764 763 762 761 760 759 758 757 755 753 754 755 755 756 756 757 757 758 759 759 760 759 759 758 755 752 752 751 750 748 748 747 745 743 741 738 737 735 734 732 732 731
776 775 774 773 771 771 769 767 766 765 764 762 760 759 756 754 752 749 747 745 744 744 744 744 745 745 746 747 748 750 751 752 753 754 754 754 755 756 757 759 760 761 761 761 761 760 759 758 757 756 756 754 752 751 751 752 752 753 754 754 755 756 756 757 757 757 756 755 752 750 750 749 748 747 746 744 742 740 738 736 735 733 731 730 729
775 774 773 771 770 768 767 766 764 763 762 760 758 756 753 751 747 745 743 741 741 741 741 741 741 742 743 744 745 746 748 749 750 750 750 751 751 752 753 755 756 757 758 757 757 757 757 756 755 754 754 752 751 750 749 748 749 749 750 751 752 753 753 754 754 754 754 754 752 750 748 748 747 745 745 743 741 739 737 735 734 733 731 729 727
774 773 772 770 769 767 766 765 763 761 760 757 755 753 750 748 745 742 741 739 739 739 738 739 738 739 740 741 742 743 745 746 746 747 747 748 748 748 748 751 753 754 754 754 754 754 754 753 752 752 751 751 750 750 748 747 746 746 747 749 750 750 751 751 752 752 752 751 751 750 747 746 746 744 743 742 740 738 736 734 732 731 730 729 726
773 772 771 769 768 766 765 764 762 760 758 755 753 750 748 746 743 741 740 739 738 738 737 737 737 737 738 739 740 741 742 743 743 743 744 745 744 744 744 747 749 750 750 750 750 750 750 750 749 749 749 749 748 748 748 747 746 745 745 747 748 748 749 749 749 750 750 749 749 749 747 745 744 743 742 741 739 737 736 734 732 730 729 727 725
772 771 770 768 767 765 763 762 760 758 755 753 750 748 746 744 742 741 739 738 738 737 737 737 736 737 738 738 739 739 739 739 739 740 741 741 741 740 740 743 745 746 747 746 746 746 746 746 746 745 745 745 745 745 746 746 745 744 744 744 745 746 746 747 747 747 747 747 747 747 746 744 742 742 742 740 739 737 736 734 732 730 728 726 724
771 769 768 766 765 763 761 759 757 755 753 751 749 747 745 743 742 741 740 739 738 737 737 737 737 737 737 737 737 737 736 736 736 737 738 738 737 736 737 740 742 743 743 743 743 743 742 742 742 742 742 741 742 742 742 742 742 742 741 741 742 743 743 744 744 744 745 745 745 745 744 742 740 740 740 739 738 737 736 734 732 730 728 725 722
769 767 766 764 762 761 759 757 755 753 751 750 748 746 745 743 742 741 740 738 738 737 736 736 735 735 734 734 734 733 733 733 734 735 735 735 734 733 735 737 738 739 740 739 739 739 739 739 738 738 738 738 738 738 738 738 738 739 739 738 738 739 740 740 741 741 741 742 742 742 741 739 737 737 737 736 736 735 734 733 732 730 728 726 723
767 765 764 762 761 759 758 756 755 753 751 750 748 746 745 743 742 740 739 737 736 735 734 734 733 732 731 731 730 730 730 731 731 732 732 732 731 731 733 734 735 736 736 736 736 736 736 736 735 735 735 734 734 734 734 735 735 735 735 735 735 736 737 737 737 737 738 738 738 737 737 736 735 734 734 734 733 733 732 731 730 729 727 726 724
766 764 763 762 761 759 758 756 754 753 751 750 748 746 744 743 741 739 737 736 734 733 732 731 730 729 728 728 727 727 728 728 729 730 729 728 729 730 731 731 732 732 732 733 733 732 732 732 732 732 732 732 731 731 731 732 731 731 732 732 732 733 733 734 734 734 735 735 735 734 734 734 733 733 733 732 731 731 731 730 729 728 726 725 723
765 764 763 762 760 759 757 756 754 752 751 749 747 745 743 741 739 737 736 734 732 731 729 728 727 726 725 725 725 725 726 726 727 727 726 726 726 727 728 728 728 728 729 729 729 729 729 729 729 728 729 729 729 729 728 728 728 728 729 729 729 730 730 730 731 732 732 732 732 732 732 732 732 731 731 731 730 729 729 728 728 727 725 723 722
765 764 762 761 760 758 757 755 753 752 750 748 746 744 742 740 738 736 734 732 730 728 726 725 724 723 723 724 724 724 724 725 725 724 724 724 725 725 725 725 725 725 726 726 726 726 726 726 726 726 726 726 726 726 726 726 725 726 726 726 727 727 727 728 728 729 729 730 730 730 730 730 730 729 729 729 729 728 726 725 724 724 723 721 720
764 763 761 760 759 758 756 754 752 751 749 747 745 742 741 739 737 735 732 730 728 727 725 724 723 723 723 723 723 723 722 722 722 722 722 723 723 723 722 722 722 722 722 723 723 723 723 724 723 723 723 723 723 724 724 724 724 723 723 723 724 724 724 725 726 727 727 727 727 727 727 727 727 727 726 726 726 725 724 722 721 721 721 720 718
763 762 761 760 758 757 755 753 751 749 747 745 743 741 740 738 736 735 732 730 728 727 725 725 724 723 723 722 721 721 720 720 721 721 721 721 721 721 720 719 719 719 719 720 720 720 720 720 721 720 720 720 721 721 721 721 721 721 721 721 721 721 721 722 724 724 725 725 725 724 724 724 724 723 723 723 723 723 722 720 719 719 718 717 716
762 761 760 759 757 756 754 752 750 748 746 744 742 740 738 736 735 733 731 729 727 725 724 723 722 722 721 720 720 719 719 719 719 720 720 719 719 718 717 716 716 716 716 717 717 717 717 717 718 718 717 717 718 718 718 718 718 717 718 718 718 718 719 720 720 721 721 722 722 721 721 721 720 720 720 720 720 720 720 719 718 718 716 715 715
761 760 758 757 756 754 752 751 749 747 745 743 741 739 736 734 732 731 729 727 725 723 722 721 720 720 719 718 718 718 718 718 718 718 718 717 716 715 714 714 714 714 714 714 714 714 714 714 715 715 715 715 715 715 715 715 714 714 714 715 714 714 715 717 717 717 717 718 718 718 718 717 717 717 717 717 717 718 717 717 717 716 715 713 714
760 758 757 755 754 752 751 749 747 745 743 741 739 736 734 732 730 728 726 724 722 721 720 719 718 718 718 717 717 717 717 717 716 716 715 714 713 713 713 712 712 712 712 712 711 711 711 711 712 712 712 712 712 712 711 711 711 711 711 711 710 710 711 712 712 713 713 714 714 714 714 714 714 715 715 715 715 715 715 715 715 714 713 712 712
758 756 754 753 751 750 748 747 745 743 741 739 737 734 732 730 728 725 723 721 719 718 718 717 717 717 717 716 716 716 715 715 714 713 712 711 711 711 711 710 710 710 710 709 709 708 708 708 708 708 709 709 709 709 708 708 708 708 708 707 707 707 708 708 708 709 709 710 710 710 711 711 711 712 712 712 712 712 712 712 712 711 711 710 710
755 754 752 751 749 747 746 745 743 741 739 737 734 731 729 727 725 723 720 719 718 717 717 716 716 715 715 715 714 714 713 713 712 710 710 709 709 709 709 709 708 708 708 707 706 706 706 706 706 706 706 706 706 706 706 705 705 705 705 705 704 705 705 705 704 705 705 706 706 707 707 707 708 708 709 709 709 709 708 707 707 707 707 707 707
753 752 750 748 747 745 744 742 741 739 737 734 732 729 727 725 722 720 719 718 717 716 715 715 714 714 713 713 712 712 711 710 709 708 708 708 708 708 707 707 707 707 706 706 705 705 704 704 704 704 704 704 704 703 703 702 702 702 702 702 702 702 702 702 702 702 702 702 703 703 704 704 705 706 706 706 706 705 704 704 703 703 703 703 703
752 750 748 746 745 743 742 740 739 737 734 732 729 727 725 723 721 719 718 716 715 714 714 713 712 712 711 710 710 710 709 708 708 708 707 707 707 707 706 706 706 705 705 705 704 704 703 703 703 702 702 702 701 700 700 700 700 699 700 699 699 699 699 699 700 700 700 701 701 701 701 702 703 704 704 704 703 702 702 701 700 699 699 699 700
750 748 746 744 743 741 740 738 736 734 732 730 728 726 723 721 719 717 716 715 713 713 712 711 711 710 709 709 709 708 708 707 707 707 707 706 706 706 705 705 704 704 704 704 703 702 702 702 701 701 700 699 699 698 697 697 697 697 697 697 697 697 697 698 698 698 699 699 699 699 700 700 701 701 701 701 701 700 699 699 698 697 697 697 697
747 746 744 742 741 740 738 736 734 732 730 728 726 724 722 720 718 716 714 713 712 711 711 710 709 709 708 708 707 707 707 707 706 706 706 705 705 704 703 703 703 702 703 702 701 701 701 700 699 699 698 698 697 696 696 695 695 695 695 695 695 695 696 696 696 696 696 697 697 697 698 698 699 699 699 699 699 698 698 697 696 695 695 695 695
745 743 742 740 739 738 736 734 732 730 728 726 724 722 720 719 717 715 713 712 711 710 709 708 708 707 707 707 706 706 706 706 705 705 704 704 703 702 702 701 701 700 700 700 699 699 698 698 697 697 696 696 696 695 695 694 694 694 694 694 694 694 694 694 694 694 694 694 695 695 695 696 696 696 696 696 696 696 696 695 694 694 693 693 692
743 742 740 739 738 736 734 732 730 727 725 723 722 720 718 717 715 713 712 711 709 708 707 707 707 706 706 705 705 705 705 704 704 704 703 703 702 701 701 700 699 699 698 697 697 697 696 696 695 695 694 694 693 693 693 693 693 692 692 692 692 692 692 692 692 692 692 692 692 692 693 693 694 694 694 694 694 694 694 693 692 692 691 691 690
741 740 739 737 736 734 732 730 728 726 723 721 720 718 716 715 713 712 710 709 708 706 706 706 705 705 705 705 705 704 704 704 704 703 703 702 701 700 699 698 697 697 696 696 695 695 694 694 693 693 692 692 691 691 691 691 691 690 690 690 690 690 690 689 689 689 689 689 690 690 690 691 691 692 692 692 692 692 692 691 691 690 690 689 689
740 738 737 736 734 731 729 727 726 724 721 719 717 715 714 713 711 710 708 707 706 705 704 704 704 704 704 704 704 704 704 703 703 702 701 701 700 699 698 697 696 695 695 694 694 693 692 692 691 691 691 691 690 690 690 690 689 689 688 689 688 688 688 687 687 687 687 687 687 687 688 689 689 690 690 690 690 690 690 689 689 689 688 688 688
738 737 735 734 731 729 727 725 723 722 720 718 716 713 711 709 708 707 706 705 704 704 703 703 703 703 703 703 702 703 702 702 701 701 700 699 698 697 696 695 695 694 694 693 692 691 691 691 690 690 690 690 689 689 689 689 688 687 687 687 686 685 685 684 684 684 684 684 684 685 686 687 687 688 688 688 688 688 687 688 687 687 687 687 687
737 735 733 731 729 727 725 723 722 720 718 716 714 712 710 708 705 704 704 703 703 703 702 702 702 702 702 701 701 701 701 701 700 699 699 698 697 696 695 694 693 693 692 692 691 690 690 689 689 689 688 688 688 688 687 687 687 686 685 684 683 682 682 681 681 682 681 681 682 683 684 684 685 685 686 686 686 686 686 686 686 686 686 686 685
735 733 731 729 727 726 724 722 721 719 717 715 713 711 709 708 705 703 703 702 702 702 702 701 701 700 700 700 700 700 700 700 699 698 697 697 696 695 694 693 692 692 691 690 689 688 688 688 687 687 687 686 686 686 686 685 684 684 683 682 680 679 679 678 679 679 678 678 679 681 681 682 682 683 684 684 685 685 684 684 684 684 684 684 684
734 732 730 728 727 725 723 721 720 718 716 715 713 711 709 708 706 705 703 702 702 701 701 701 700 700 699 699 699 699 699 699 698 697 696 696 695 694 693 692 691 690 689 688 687 687 686 686 686 685 685 685 684 684 683 682 682 681 681 680 679 677 676 675 675 675 676 677 678 678 679 680 680 681 682 683 683 683 683 683 683 683 683 682 682
732 731 729 727 726 724 722 720 718 717 715 714 712 711 709 707 706 705 704 703 702 701 700 700 699 699 699 698 698 698 698 697 697 696 695 695 694 692 691 690 689 689 688 687 686 685 685 684 684 684 683 683 682 682 681 680 680 679 678 678 677 675 673 671 672 673 674 676 676 676 677 678 679 679 680 681 681 681 681 681 681 681 681 681 680
731 729 727 726 724 722 721 719 717 715 714 712 711 709 708 707 706 704 703 703 702 701 700 700 699 698 698 698 698 697 697 696 696 695 695 694 693 692 690 689 689 688 687 686 685 684 683 683 682 682 682 681 681 680 679 679 678 677 677 676 675 673 670 668 669 671 673 675 675 675 675 676 677 678 679 679 679 680 680 679 679 679 679 679 678
730 728 726 724 722 721 719 717 716 714 712 711 709 708 706 705 704 703 702 701 700 700 699 698 698 697 697 697 697 696 696 695 695 694 694 693 692 691 690 689 688 688 687 686 685 684 683 682 682 681 680 680 679 679 678 677 677 676 675 674 673 671 669 668 669 671 673 674 674 674 674 675 676 677 677 677 678 678 678 678 678 677 677 677 676
728 727 725 723 721 719 717 715 714 712 711 709 708 706 704 703 702 701 700 699 699 699 698 697 697 696 696 696 696 695 695 694 693 693 692 692 691 690 689 689 688 687 686 686 685 684 683 682 681 680 680 679 678 678 677 676 675 675 674 673 672 671 670 669 670 672 672 673 673 673 674 674 675 676 676 676 676 676 676 675 675 675 674 674 674
727 725 723 721 719 718 716 714 713 711 710 708 707 705 703 702 700 700 699 698 698 697 697 696 696 696 695 695 694 694 693 693 692 692 691 691 690 689 689 688 687 686 686 685 684 683 682 681 680 680 679 678 678 677 676 676 675 674 674 673 671 671 670 670 671 671 672 672 672 673 673 674 674 674 674 674 674 674 674 673 673 673 672 672 671
725 723 721 720 718 717 715 713 712 711 709 708 706 705 703 701 700 699 698 697 697 697 696 696 695 695 694 694 693 693 692 692 691 691 690 690 689 689 688 687 686 686 685 684 683 682 681 681 680 679 678 678 677 676 676 675 674 674 673 672 672 671 671 670 670 671 671 671 672 672 673 673 673 673 673 673 673 673 672 671 671 671 670 670 669
724 722 720 719 717 715 714 713 711 710 709 707 706 704 703 701 700 699 698 697 696 696 695 695 694 694 693 693 693 692 691 691 691 690 689 689 688 688 687 686 686 685 684 683 682 681 680 679 679 678 677 676 676 675 675 674 674 673 672 672 671 671 670 670 670 670 671 671 671 672 672 672 672 672 672 672 671 671 670 670 669 669 669 668 668
722 720 719 717 716 714 713 712 711 709 708 707 705 704 702 701 699 698 697 696 696 695 694 694 693 693 692 692 692 691 691 690 690 689 689 688 687 687 686 685 684 684 683 682 681 680 679 678 677 677 676 675 675 674 673 673 672 672 671 671 671 670 670 670 670 670 670 670 670 671 671 670 670 670 670 670 670 669 669 668 668 667 667 667 666
721 719 718 716 714 714 713 711 710 709 707 705 704 703 701 700 698 697 696 695 695 694 693 693 692 692 691 691 691 690 690 689 689 688 688 687 686 686 685 684 683 682 682 681 680 679 678 677 676 675 675 674 673 673 672 672 671 670 670 670 669 669 669 669 669 669 670 670 669 669 669 669 669 669 669 669 668 668 668 667 667 666 666 666 665
719 718 716 714 713 713 711 710 709 707 706 705 703 702 700 699 698 696 695 694 694 693 692 692 691 691 691 690 690 689 689 688 688 687 687 686 685 685 684 683 682 681 680 679 679 678 676 675 675 674 673 673 672 671 671 670 669 669 669 668 668 668 668 668 668 668 668 668 668 668 667 667 667 668 668 667 667 667 666 666 666 666 665 665 665
717 716 714 713 712 711 710 709 708 706 705 704 702 701 700 698 697 696 695 694 693 692 692 691 690 690 689 689 689 688 688 687 687 687 686 685 685 684 683 682 681 680 679 678 677 676 675 674 673 672 671 671 670 670 669 668 668 667 667 667 666 666 666 667 667 667 667 667 666 666 666 666 666 666 666 666 666 666 665 665 665 665 665 665 664
716 714 713 712 711 710 709 708 706 705 704 703 701 700 699 697 696 695 694 693 692 692 691 690 689 689 688 688 688 687 687 687 686 686 685 685 684 683 682 681 680 679 678 677 676 675 674 673 672 671 670 669 668 668 667 667 666 666 666 666 665 665 665 665 665 665 665 665 665 665 665 665 665 665 665 665 665 664 664 664 664 664 664 664 664
714 713 712 711 710 709 708 706 705 704 703 702 700 699 698 697 696 695 694 693 692 691 690 689 689 688 687 687 687 686 686 686 685 685 685 684 683 682 681 680 679 678 677 676 675 674 673 672 671 670 669 668 667 667 666 666 666 665 665 665 664 664 664 664 663 663 663 663 663 664 664 664 664 664 664 664 664 663 663 663 663 663 663 663 663
713 712 711 710 709 708 706 705 704 703 702 701 700 698 697 696 695 694 693 692 691 690 689 689 688 687 687 686 686 686 686 685 685 685 684 683 682 681 680 679 678 677 676 675 673 673 672 671 670 669 668 667 666 666 665 665 665 664 664 664 663 663 662 662 662 662 662 662 662 662 663 663 663 663 663 663 663 662 662 662 662 662 663 662 662
712 711 710 709 708 706 705 704 703 702 701 700 699 697 696 695 694 693 692 692 691 690 689 689 688 687 687 686 685 685 685 684 684 684 683 682 682 681 680 679 677 676 675 674 672 672 671 670 669 669 668 667 666 665 664 664 664 663 663 662 662 661 661 661 661 661 661 661 661 661 662 662 662 662 662 662 662 662 662 662 662 662 662 661 661
711 710 709 708 706 705 704 703 702 701 700 699 698 697 696 695 694 693 692 691 690 689 689 688 687 687 686 686 685 685 684 684 683 683 682 682 681 680 679 678 676 675 674 673 672 671 670 670 669 668 667 666 665 665 664 663 663 662 662 661 661 660 660 660 660 660 660 660 660 661 661 661 661 661 661 661 661 661 661 661 661 661 661 661 661
710 709 708 706 705 704 703 702 701 700 699 698 697 696 695 694 693 692 691 690 690 689 688 687 687 686 685 685 685 684 684 683 683 682 682 681 680 679 678 677 676 675 673 672 671 671 670 669 668 667 666 666 665 664 663 663 662 661 661 660 660 660 659 659 659 659 659 660 660 660 660 660 660 660 660 660 660 660 660 660 661 661 661 661 661